User: anonymous   Login
Location: Unspecified
(0.0000°N, 0.0000°E)
Time: 23:24:29
(UTC+00:00)
Language:

STARLINK-31044 - Orbit

View from above orbital plane
View from above orbital plane
View from above satellite
View from above satellite

Ground track
Ground track

The orbit is defined by the following mean orbital elements,

1 58589U          26145.55610742 +.00000000 +00000-0 +15710-3 0 00003
2 58589  43.0018  94.9861 0000645 249.6110 110.4672 15.27579880    01
Epoch (UTC): 25 May 2026 13:20:47
Eccentricity: 0.0000645
inclination: 43.0018°
perigee height: 483 km
apogee height: 483 km
right ascension of ascending node: 94.9861°
argument of perigee: 249.6110°
revolutions per day: 15.27579880
mean anomaly at epoch: 110.4672°

The dashed part of the orbit path shows where the satellite is in the earth's shadow,  

DLR